Regional Weather Roundup
Issued by NWS

Home | Current Version | Previous Version | Text Only | Print | Product List | Glossary Off
Versions: 1 2 3 4 5 6 7 8 9 10 11 12 13 14 15 16 17 18 19 20 21 22 23 24 25 26 27

000
ASUS45 KSLC 202210
RWRUT

UTAH REGIONAL WEATHER ROUNDUP
NATIONAL WEATHER SERVICE SALT LAKE CITY UT
300 PM MST FRI JAN 20 2017

UTZ001>011-023>025-202300-

NORTHERN UTAH

CITY           SKY/WX    TMP DP  RH WIND       PRES   REMARKS
BRIGHAM CITY     N/A     32  29  88 N6        29.46F WCI  27
HILL AFB       PTSUNNY   35  29  78 SW6       29.43F WCI  30
LOGAN          PTSUNNY   29  27  92 W3        29.46F FOG
OGDEN          PTSUNNY   34  31  88 NW3       29.43F FOG
SALT LAKE CITY PTSUNNY   42  28  57 S16       29.42F
TOOELE VALLEY  CLOUDY    34  32  93 N12G18    29.41F FOG     WCI  25
WENDOVER       CLOUDY    27  25  93 CALM      29.42F
HEBER CITY     FLURRIES  36  25  64 SW8       29.43F WCI  29
WEST JORDAN    PTSUNNY   40  34  80 S16       29.43F WCI  31

$$

UTZ011>015-024>027-202300-

CENTRAL/NORTHEAST UTAH

CITY           SKY/WX    TMP DP  RH WIND       PRES   REMARKS
PROVO AIRPORT  PTSUNNY   39  30  70 VRB5      29.45F
MOAB/CANYONLAN MOSUNNY   33  31  92 NW9       29.52F WCI  25
DELTA          CLOUDY    34  28  80 CALM      29.41F
PRICE          CLOUDY    28  27  96 E7        29.51F WCI  21
RICHFIELD      PTSUNNY   37  27  65 NE8       29.44F WCI  31
ROOSEVELT      CLOUDY    27  19  74 CALM      29.58S
VERNAL         CLOUDY    26  17  68 N3        29.55F

$$

UTZ013>016-019>022-027-202300-

SOUTHERN UTAH

CITY           SKY/WX    TMP DP  RH WIND       PRES   REMARKS
BRYCE CANYON   SNOW      26  23  88 SE20      29.46F VSB 1/4 WCI  12
CEDAR CITY     CLOUDY    32  30  92 SW16G24   29.39F WCI  21
MILFORD        LGT SNOW  34  31  88 S15       29.40S FOG     WCI  24
ST GEORGE      CLOUDY    43  37  81 E7        29.52S
HANKSVILLE     CLOUDY    39  32  75 MISG      29.53F
KANAB          FOG       34  34 100 E5        29.56F VSB 1   WCI  30
BLANDING       CLOUDY    33  30  90 S5        29.65S WCI  28

$$

REGIONAL REPORTS     COLORADO/ARIZONA

CITY           SKY/WX    TMP DP  RH WIND       PRES   REMARKS
CRAIG, CO      LGT SNOW  29  25  85 S3        29.52S FOG
GRAND JUNCTION CLOUDY    35  33  92 NW7       29.55F WCI  29
RIFLE, CO      CLOUDY    37  30  75 W18G26    29.52S WCI  27
MONTROSE, CO   CLOUDY    39  22  50 W6        29.57R WCI  35
CORTEZ, CO     CLOUDY    36  31  82 MISG      29.60F
COLORADO CITY  LGT SNOW  34  34 100 SE8       29.53F WCI  27
PAGE, AZ       LGT RAIN  40  32  73 N5        29.52F
GRAND CANYON   LGT SNOW  30  30 100 SW20G28   29.55S FOG     WCI  17
KINGMAN, AZ    CLOUDY    45  34  65 S26G33    29.53F
FLAGSTAFF, AZ  SNOW      28  27  96 SW23G31   29.57F VSB 1/4 WCI  14

$$

REGIONAL REPORTS    NEVADA/IDAHO/WYOMING

CITY           SKY/WX    TMP DP  RH WIND       PRES   REMARKS
LAS VEGAS, NV  LGT RAIN  47  40  76 S6        29.44F
ELY, NY        FLURRIES  31  26  82 SE22G28   29.30F WCI  18
ELKO, NV       LGT SNOW  30  25  81 NE9       29.26S WCI  22
POCATELLO, ID  CLOUDY    35  25  66 N5        29.43S WCI  31
BURLEY, ID     PTSUNNY   37  24  59 N8        29.34F WCI  31
FORT BRIDGER,    N/A     29  21  72 E6        29.46F WCI  23
EVANSTON, WY   CLOUDY    26  19  74 CALM      29.42F
ROCK SPRINGS,  FOG       23  20  88 NE5       29.46S VSB<1/4 WCI  17
KEMMERER, WY     N/A     27  19  74 N7        29.44S WCI  19

$$




USA.gov is the U.S. government's official web portal to all federal, state and local government web resources and services.